SCP
0 0 0 0 0 0 0 0 0 0 0 0 0 0 0 0 0 0 0 0 0 0 0 0 0 0 0 0 0 0 0 0 0 0 0 0 0 0 0 0 0 0 0
0 0 0 0 0 0 0 0 0 0 0 0 0 0 0 0 0 0 0 0 0 0 0 0 0 0 0 0 0 0 0 0 0 0 0 0 0 0 0 0 0 0 0
0 0 0 0 0 0 0 0 0 0 0 0 0 0 0 0 0 0 0 0 0 0 0 0 0 0 0 0 0 0 0 0 0 0 0 0 0 0 0 0 0 0 0
0 0 0 0 0 0 0 0 0 0 0 0 0 0 0 0 0 0 0 0 0 0 0 0 0 0 0 0 0 0 0 0 0 0 0 0 0 0 0 0 0 0 0
0 0 0 0 0 0 0 0 0 0 0 0 0 0 0 0 0 0 0 0 0 0 0 0 0 0 0 0 0 0 0 0 0 0 0 0 0 0 0 0 0 0 0
0 0 0 0 0 0 0 0 0 0 0 0 0 0 0 0 0 0 0 0 0 0 0 0 0 0 0 0 0 0 0 0 0 0 0 0 0 0 0 0 0 0 0
0 0 0 0 0 0 0 0 0 0 0 0 0 0 0 0 0 0 0 0 0 0 0 0 0 0 0 0 0 0 0 0 0 0 0 0 0 0 0 0 0 0 0
0 0 0 0 0 0 0 0 0 0 0 0 0 0 0 0 0 0 0 0 0 0 0 0 0 0 0 0 0 0 0 0 0 0 0 0 0 0 0 0 0 0 0
0 0 0 0 0 0 0 0 0 0 0 0 0 0 0 0 0 0 0 0 0 0 0 0 0 0 0 0 0 0 0 0 0 0 0 0 0 0 0 0 0 0 0
0 0 0 0 0 0 0 0 0 0 0 0 0 0 0 0 0 0 0 0 0 0 0 0 0 0 0 0 0 0 0 0 0 0 0 0 0 0 0 0 0 0 0
0 0 0 0 0 0 0 0 0 0 0 0 0 0 0 0 0 0 0 0 0 0 0 0 0 0 0 0 0 0 0 0 0 0 0 0 0 0 0 0 0 0 0
0 0 0 0 0 0 0 0 0 0 0 0 0 0 0 0 0 0 0 0 0 0 0 0 0 0 0 0 0 0 0 0 0 0 0 0 0 0 0 0 0 0 0
0 0 0 0 0 0 0 0 0 0 0 0 0 0 0 0 0 0 0 0 0 0 0 0 0 0 0 0 0 0 0 0 0 0 0 0 0 0 0 0 0 0 0
0 0 0 0 0 0 0 0 0 0 0 0 0 0 0 0 0 0 0 0 0 0 0 0 0 0 0 0 0 0 0 0 0 0 0 0 0 0 0 0 0 0 0
0 0 0 0 0 0 0 0 0 0 0 0 0 0 0 0 0 0 0 0 0 0 0 0 0 0 0 0 0 0 0 0 0 0 0 0 0 0 0 0 0 0 0
0 0 0 0 0 0 0 0 0 0 0 0 0 0 0 0 0 0 0 0 0 0 0 0 0 0 0 0 0 0 0 0 0 0 0 0 0 0 0 0 0 0 0
0 0 0 0 0 0 0 0 0 0 0 0 0 0 0 0 0 0 0 0 0 0 0 0 0 0 0 0 0 0 0 0 0 0 0 0 0 0 0 0 0 0 0
-0 -0 0 0 0 0 0 0 0 0 0 0 0 0 0 0 0 0 0 0 0 0 0 0 0 0 0 0 0 0 0 0 0 0 0 0 0 0 0 0 0 0 0
-0 -0 0 0 0 0 0 0 0 0 0 0 0 0 0 0 0 0 0 0 0 0 0 0 0 0 0 0 0 0 0 0 0 0 0 0 0 0 0 0 0 0 0
-0 -0 -0 0 0 0 0 0 0 0 0 0 0 0 0 0 0 0 0 0 0 0 0 0 0 0 0 0 0 0 0 0 0 0 0 0 0 0 0 0 0 0 0
0 0 0 0 0 0 0 0 0 0 0 0 0 0 0 0 0 0 0 0 0 0 0 0 0 0 0 0 0 0 0 0 0 0 0 0 0 0 0 0 0 0 0
0 0 0 0 0 0 0 0 0 0 0 0 0 0 0 0 0 0 0 0 0 0 0 0 0 0 0 0 0 0 0 0 0 0 0 0 0 0 0 0 0 0 0
0 0 0 0 0 0 0 0 0 0 0 0 0 0 0 0 0 0 0 0 0 0 0 0 0 0 0 0 0 0 0 0 0 0 0 0 0 0 0 0 0 0 0
0 0 0 0 0 0 0 0 0 0 0 0 0 0 0 0 0 0 0 0 0 0 0 0 0 0 0 0 0 0 0 0 0 0 0 0 0 0 0 0 0 0 0
0 0 0 0 0 0 0 0 0 0 0 0 0 0 0 0 0 0 0 0 0 0 0 0 0 0 0 0 0 0 0 0 0 0 0 0 0 0 0 0 0 0 0
0 0 0 0 0 0 0 0 0 0 0 0 0 0 0 0 0 0 0 0 0 0 0 0 0 0 0 0 0 0 0 0 0 0 0 0 0 0 0 0 0 0 0
Wind_Speed
18 15 16 18 18 19 19 20 20 21 18 15 15 14 14 13 12 12 15 16 15 16 15 10 11 11 10 10 10 8 9 7 6 6 8 9 10 10 8 8 9 10 11
14 13 14 16 19 20 21 21 22 21 21 16 15 12 13 12 13 12 15 17 17 17 14 15 12 12 10 12 11 10 7 7 7 6 6 6 6 8 7 8 9 10 9
11 10 13 15 17 19 21 19 22 21 21 19 13 11 10 9 12 15 14 17 19 19 17 18 15 14 13 11 13 12 12 9 8 8 7 6 5 4 6 10 9 10 9
6 7 9 13 16 17 16 18 19 20 19 19 18 19 16 17 17 14 13 16 19 20 19 18 18 16 13 13 13 13 11 11 9 8 9 9 7 6 6 6 8 10 12
8 6 7 10 13 14 15 15 17 18 19 20 21 20 20 17 13 14 16 17 18 20 20 20 18 17 14 15 14 13 14 11 11 9 8 9 9 11 9 10 9 9 10
11 8 6 6 9 11 13 15 17 19 19 21 22 23 23 20 18 18 16 15 13 15 21 21 19 18 15 16 15 14 15 13 13 10 9 9 8 8 10 11 12 11 11
13 11 9 7 7 10 13 15 17 19 20 21 22 23 24 22 22 19 18 16 14 15 20 20 19 18 17 16 15 15 15 15 15 13 10 10 10 10 10 11 12 14 12
14 13 11 9 7 7 11 14 17 18 18 20 21 20 21 17 16 19 17 17 14 15 17 20 20 20 19 17 16 14 15 13 14 15 14 10 10 10 10 11 12 13 13
16 15 13 11 9 7 7 11 14 15 16 17 18 18 19 19 18 18 18 16 16 13 17 19 20 20 19 19 17 13 15 14 14 14 14 12 11 10 11 11 11 12 14
15 14 13 12 11 9 7 6 10 12 13 15 15 14 17 19 18 17 19 18 17 16 16 18 19 19 19 19 17 15 15 15 14 11 13 13 11 10 11 11 11 12 13
13 13 12 12 11 10 8 6 6 8 10 12 14 16 16 16 17 18 19 17 16 17 18 17 18 19 19 19 18 17 16 17 15 14 14 15 14 11 11 11 12 12 13
11 12 12 12 12 12 10 8 6 7 8 10 12 14 14 15 16 17 17 17 17 17 17 17 18 19 19 19 19 19 18 17 17 16 15 16 12 15 13 12 14 13 14
12 13 14 14 14 13 12 10 8 7 7 8 11 13 14 15 17 17 16 16 17 17 17 18 19 19 18 19 19 18 18 17 16 15 16 16 15 16 14 14 14 13 13
12 14 15 15 15 14 13 12 11 9 7 8 10 13 13 14 15 15 15 16 16 17 18 18 19 18 17 17 17 17 16 15 15 15 15 15 16 16 16 14 15 14 15
14 16 17 17 17 16 15 13 12 10 8 9 11 12 12 12 13 14 14 15 16 17 17 18 18 18 16 15 17 16 16 16 15 15 15 16 19 21 18 13 14 14 14
16 18 18 18 18 17 15 15 14 12 10 10 11 11 11 11 12 13 14 15 16 16 16 17 18 19 15 23 28 21 16 15 15 15 15 15 18 22 26 27 26 22 17
17 18 18 17 16 16 15 14 14 14 12 11 11 11 10 11 12 12 13 15 15 15 16 17 18 20 21 27 29 30 17 16 15 15 14 12 13 18 14 18 23 23 26
18 18 17 16 15 14 13 13 14 13 13 12 12 10 9 11 12 12 14 14 14 14 15 16 18 19 20 27 29 29 21 16 16 16 15 15 14 13 13 13 15 16 16
18 16 15 14 14 14 13 14 15 14 13 13 12 11 9 11 12 13 14 13 13 14 14 15 17 18 19 26 28 27 15 14 16 15 15 15 14 17 19 15 16 17 14
15 13 12 13 14 13 13 14 15 15 15 14 14 14 13 12 13 13 13 12 12 13 13 14 16 18 18 22 28 28 13 13 12 12 13 18 18 18 19 14 14 15 13
14 12 12 12 13 14 13 14 15 15 15 15 15 15 14 13 13 12 11 10 10 11 12 14 14 15 17 20 26 28 13 12 11 9 9 10 17 19 19 17 13 15 15
13 13 12 14 14 14 14 15 16 16 15 15 15 15 14 12 9 11 10 9 10 11 12 12 13 12 14 18 21 27 24 18 12 9 8 9 14 16 17 14 14 18 17
12 12 13 15 15 14 14 16 17 16 16 16 16 15 14 12 10 10 9 8 9 9 9 9 10 10 9 12 22 24 26 25 14 9 13 13 14 14 12 13 15 14 9
13 13 14 16 16 16 16 16 16 15 15 15 15 14 13 12 10 7 7 8 8 9 9 9 9 9 9 9 10 12 14 19 16 11 12 15 14 11 11 11 9 7 7
13 13 14 16 18 17 17 17 16 15 15 15 14 13 11 11 9 8 7 9 9 9 9 9 9 9 9 12 16 12 10 10 10 8 6 6 6 7 6 6 6 6 6
15 15 16 18 18 18 18 17 15 14 14 13 12 10 9 9 8 8 8 11 14 16 18 18 14 11 14 14 18 21 18 17 16 11 7 7 7 7 6 6 6 6 6
Wind_Direction
248 230 216 212 209 208 206 203 201 202 199 199 203 206 210 211 212 212 210 206 205 203 207 208 206 204 209 210 210 215 224 227 232 256 263 260 254 255 253 253 257 260 264
257 235 220 211 210 208 206 205 205 202 201 202 204 208 212 216 215 212 214 210 208 205 206 209 207 205 209 211 211 211 219 224 218 235 267 275 247 226 243 255 258 264 268
269 246 224 218 214 213 210 208 207 205 204 202 202 204 211 218 214 214 214 212 210 208 207 210 209 207 208 210 209 207 214 221 214 217 236 259 279 293 245 250 258 265 268
304 268 238 223 219 219 217 216 213 211 207 202 205 203 206 212 214 213 213 211 211 211 209 209 210 209 209 211 209 208 212 220 226 217 223 236 256 271 286 248 247 255 263
355 321 270 240 227 218 215 216 216 215 210 207 210 212 219 224 222 215 216 214 211 212 210 209 208 209 209 211 209 207 210 214 223 225 222 230 241 238 248 273 277 269 265
3 348 319 266 238 220 214 212 213 215 211 210 213 216 221 223 222 218 216 215 213 212 212 210 208 208 208 208 208 208 210 213 219 226 229 232 236 240 245 262 273 280 281
355 347 338 310 261 229 219 215 216 218 213 213 216 219 223 225 226 224 220 216 215 213 211 206 208 207 207 206 205 207 211 214 218 222 227 232 239 247 256 266 276 280 283
351 343 337 323 300 259 231 223 222 223 217 216 219 222 224 226 231 228 224 222 221 219 212 208 209 207 204 203 203 207 210 214 218 224 228 234 239 243 247 256 271 280 281
346 343 341 338 329 308 265 236 230 230 225 223 223 224 224 226 230 231 229 229 227 222 217 211 210 208 204 202 200 206 208 211 217 222 225 231 239 242 245 250 254 266 279
347 347 346 345 342 335 315 273 244 239 233 227 225 228 228 229 231 232 232 230 229 224 220 214 211 207 204 202 201 205 209 210 216 220 227 230 235 241 244 247 249 251 261
348 348 347 347 345 345 339 317 276 253 243 234 231 231 232 232 232 233 235 234 231 226 224 219 214 210 205 202 202 205 205 210 216 218 224 231 235 242 245 246 248 249 251
351 352 350 348 350 348 343 330 304 274 255 244 239 239 238 236 235 237 238 235 232 228 224 220 217 213 207 203 202 204 205 209 215 219 223 231 232 238 244 247 250 251 252
355 354 351 348 346 342 338 332 318 293 272 254 246 245 242 239 239 239 237 234 232 228 222 219 216 213 207 204 204 204 206 210 215 218 222 229 231 239 243 247 250 253 255
352 349 344 341 339 334 333 330 325 312 287 264 253 251 248 245 244 243 239 234 230 227 224 221 219 214 208 204 204 203 205 210 216 220 225 229 231 237 245 250 253 255 258
343 342 337 332 330 329 328 327 322 316 302 278 266 262 261 256 250 246 241 235 230 228 224 222 220 216 209 204 201 202 204 209 216 221 227 232 234 238 242 243 249 252 256
334 332 329 326 324 324 324 322 319 317 306 289 278 274 268 260 253 247 242 236 231 228 224 222 220 219 214 210 206 201 204 209 215 222 227 233 240 245 250 254 258 260 264
326 322 320 319 319 319 320 317 315 314 307 296 288 283 275 267 260 253 246 240 234 229 225 222 221 223 220 214 212 208 203 209 215 221 227 230 234 241 244 257 266 271 273
318 317 317 316 315 314 315 314 311 308 305 299 294 289 278 271 267 258 249 242 235 229 225 224 224 225 224 219 217 213 209 215 220 223 227 235 239 239 244 250 258 261 262
313 312 311 309 307 309 314 312 308 308 305 302 301 298 283 274 270 261 254 245 237 232 227 224 224 225 225 221 219 214 212 218 225 227 231 237 244 248 253 256 262 267 266
312 313 309 306 305 311 315 309 306 307 306 308 307 304 298 286 276 269 262 251 239 234 229 227 225 225 225 221 219 215 212 218 223 227 230 236 241 248 253 256 263 271 278
314 315 311 307 308 313 312 306 306 306 309 309 306 303 300 293 285 278 267 255 243 236 231 231 228 226 226 224 220 217 209 214 219 223 226 229 239 248 256 261 264 273 283
315 317 313 308 309 312 312 306 305 309 310 308 305 304 303 300 289 279 269 254 242 237 234 233 231 226 224 224 223 220 215 212 217 222 226 230 238 249 259 265 271 281 290
313 313 310 306 306 309 310 305 306 310 310 307 305 306 306 303 293 281 270 256 240 236 235 231 231 228 219 220 221 222 221 219 216 222 228 234 243 255 264 269 277 284 284
313 313 310 306 306 310 309 304 306 308 306 304 305 306 306 304 298 281 264 253 240 234 233 232 231 230 222 214 212 213 220 223 225 226 231 238 247 254 263 270 273 269 270
307 307 305 303 304 308 306 305 307 308 304 302 302 304 302 301 297 283 266 257 246 238 235 237 234 231 227 218 208 201 202 203 209 205 209 218 228 239 244 251 259 265 271
307 306 304 304 306 307 304 304 306 305 302 300 301 303 303 301 293 289 281 257 252 254 247 243 242 242 242 236 218 212 208 204 201 198 208 219 226 236 245 255 263 268 274